Regional Weather Roundup
Issued by NWS Cleveland, OH

Home | Current Version | Previous Version | Graphics & Text | Print | Product List | Glossary On
Versions: 1 2 3 4 5 6 7 8 9 10 11 12 13 14 15 16 17 18 19 20 21 22 23 24 25 26 27 28 29 30 31 32 33 34 35 36 37 38 39 40 41 42 43 44 45 46 47 48 49 50
000
ASUS41 KCLE 010310
RWRCLE
OHIO REGIONAL WEATHER ROUNDUP
NATIONAL WEATHER SERVICE WILMINGTON, OH
1100 PM EDT TUE JUN 30 2015

NOTE: "FAIR" INDICATES FEW OR NO CLOUDS BELOW 12,000 FEET WITH NO
SIGNIFICANT WEATHER AND/OR OBSTRUCTIONS TO VISIBILITY.

OHZ001>008-015>018-024>027-034-035-043-044-010400-
   NORTHWEST OHIO

CITY           SKY/WX    TMP DP  RH WIND       PRES   REMARKS
DEFIANCE       CLEAR     67  58  72 NW7       29.82R
FINDLAY        CLEAR     66  60  81 W5        29.83R
TOLEDO EXPRESS MOCLDY    66  59  78 W6        29.81R
TOLEDO EXEC    PTCLDY    66  62  87 SW6       29.81R
LIMA           CLEAR     64  61  90 W5        29.85R
$$

OHZ009>014-019>023-028>033-038-089-010400-
   NORTHEAST OHIO

CITY           SKY/WX    TMP DP  RH WIND       PRES   REMARKS
CLE-HOPKINS    MOCLDY    67  63  87 S5        29.82R
CLE-LAKEFRONT  PTCLDY    68  64  87 SE7       29.80R
CUY CO. ARPT   MOCLDY    66  64  94 S6        29.81R
LORAIN-ELYRIA  PTCLDY    67  63  87 SW6       29.80R
ASHTABULA      MOCLDY    63  62  97 S5        29.82R
AKRON-CANTON   MOCLDY    65  62  90 S8        29.83R
WOOSTER        CLOUDY    65  63  93 S6        29.84R
MANSFIELD      MOCLDY    66  65  96 S7        29.84R
YOUNGSTOWN     MOCLDY    63  61  93 S5        29.83R
$$

OHZ042-051>053-060>062-070>072-077>081-010400-
  SOUTHWEST OHIO

CITY           SKY/WX    TMP DP  RH WIND       PRES   REMARKS
CINC-COVINGTON TSTM      64  61  88 SW7       29.90R FOG
CINC-LUNKEN    MOCLDY    64  60  87 SW3       29.91R
HAMILTON       PTCLDY    66  64  93 VRB3      29.90R
DAYTON         PTCLDY    68  64  87 SW8       29.88R
WRIGHT-PAT AFB CLEAR     66  62  86 SW6       29.87R
DAYTON GENERAL CLEAR     64  61  90 S6        29.88R
WILMINGTON     PTCLDY    62  59  90 S7        29.89R
$$

OHZ036-037-039>041-045>050-054>059-063>069-073>076-082>088-010400-
  CENTRAL AND SOUTHEAST OHIO

CITY           SKY/WX    TMP DP  RH WIND       PRES   REMARKS
COLUMBUS       MOCLDY    64  61  90 S6        29.85S
OSU AIRPORT    MOCLDY    65  63  93 SW8       29.85R
BOLTON FIELD   MOCLDY    64  63  97 SW6       29.87R
RICKENBACK AFB MOCLDY    61  59  93 S9        29.86R
NEWARK         CLOUDY    65  60  84 S7        29.85R
MARION         MOCLDY    67  63  87 SW7       29.84R
LANCASTER      MOCLDY    63  59  87 CALM      29.88R
ZANESVILLE     CLOUDY    62  58  86 S7        29.85S
NEW PHILLY     PTCLDY    63  61  93 S5        29.85R
$$



USA.gov is the U.S. government's official web portal to all federal, state and local government web resources and services.